TimeCST,TemperatureF,Dew PointF,Humidity,Sea Level PressureIn,VisibilityMPH,Wind Direction,Wind SpeedMPH,Gust SpeedMPH,PrecipitationIn,Events,Conditions,WindDirDegrees,DateUTC
12:15 AM,9.5,-0.2,65,30.24,10.0,Calm,Calm,-,N/A,,Overcast,0,2013-12-06 06:15:00
12:35 AM,9.9,-1.1,61,30.24,10.0,ESE,3.5,-,N/A,,Overcast,110,2013-12-06 06:35:00
12:55 AM,9.3,-0.9,63,30.24,10.0,East,4.6,-,N/A,,Overcast,100,2013-12-06 06:55:00
1:15 AM,9.0,-0.8,65,30.24,10.0,East,3.5,-,N/A,,Overcast,90,2013-12-06 07:15:00
1:35 AM,8.6,-1.5,64,30.24,10.0,East,3.5,-,N/A,,Overcast,80,2013-12-06 07:35:00
1:55 AM,7.3,-1.7,67,30.24,10.0,East,4.6,-,N/A,,Overcast,80,2013-12-06 07:55:00
2:15 AM,6.3,-2.2,68,30.24,10.0,East,6.9,-,N/A,,Overcast,80,2013-12-06 08:15:00
2:35 AM,6.8,-2.4,66,30.24,10.0,East,6.9,-,N/A,,Overcast,100,2013-12-06 08:35:00
2:55 AM,6.3,-2.7,67,30.25,10.0,East,6.9,-,N/A,,Overcast,90,2013-12-06 08:55:00
3:15 AM,5.9,-2.7,68,30.26,10.0,East,5.8,-,N/A,,Overcast,90,2013-12-06 09:15:00
3:35 AM,5.9,-2.6,68,30.26,10.0,NNE,3.5,-,N/A,,Overcast,30,2013-12-06 09:35:00
3:55 AM,3.7,-3.1,73,30.26,10.0,NNE,4.6,-,N/A,,Overcast,30,2013-12-06 09:55:00
4:15 AM,2.7,-3.8,74,30.26,10.0,NNE,4.6,-,N/A,,Overcast,20,2013-12-06 10:15:00
4:35 AM,2.1,-4.0,76,30.26,10.0,NNE,5.8,-,N/A,,Overcast,20,2013-12-06 10:35:00
4:55 AM,2.5,-4.0,74,30.26,10.0,NE,5.8,-,N/A,,Overcast,40,2013-12-06 10:55:00
5:15 AM,2.8,-3.6,74,30.27,10.0,ENE,5.8,-,N/A,,Overcast,60,2013-12-06 11:15:00
5:35 AM,3.2,-5.8,66,30.28,10.0,East,5.8,-,N/A,,Overcast,80,2013-12-06 11:35:00
5:55 AM,2.3,-6.7,66,30.28,10.0,East,4.6,-,N/A,,Overcast,80,2013-12-06 11:55:00
6:15 AM,1.4,-6.9,68,30.28,10.0,East,6.9,-,N/A,,Overcast,90,2013-12-06 12:15:00
6:35 AM,0.9,-7.1,69,30.29,10.0,East,5.8,-,N/A,,Mostly Cloudy,90,2013-12-06 12:35:00
6:55 AM,1.2,-6.9,69,30.30,10.0,East,4.6,-,N/A,,Overcast,90,2013-12-06 12:55:00
7:15 AM,1.4,-7.6,66,30.31,10.0,East,4.6,-,N/A,,Mostly Cloudy,80,2013-12-06 13:15:00
7:35 AM,1.9,-6.7,67,30.31,10.0,East,5.8,-,N/A,,Overcast,90,2013-12-06 13:35:00
7:55 AM,2.3,-6.9,66,30.31,10.0,East,9.2,-,N/A,,Overcast,90,2013-12-06 13:55:00
8:15 AM,2.3,-6.9,66,30.32,10.0,East,6.9,-,N/A,,Overcast,90,2013-12-06 14:15:00
8:35 AM,3.0,-6.5,65,30.33,10.0,East,8.1,-,N/A,,Overcast,100,2013-12-06 14:35:00
8:55 AM,3.2,-6.7,63,30.33,10.0,East,8.1,-,N/A,,Overcast,100,2013-12-06 14:55:00
9:15 AM,4.1,-6.2,63,30.34,10.0,East,9.2,-,N/A,,Overcast,100,2013-12-06 15:15:00
9:35 AM,4.6,-6.0,62,30.35,10.0,East,5.8,-,N/A,,Overcast,100,2013-12-06 15:35:00
9:55 AM,5.0,-5.6,62,30.35,10.0,East,5.8,-,N/A,,Overcast,100,2013-12-06 15:55:00
10:15 AM,6.1,-4.7,61,30.36,10.0,East,5.8,-,N/A,,Overcast,100,2013-12-06 16:15:00
10:35 AM,7.0,-5.1,58,30.36,10.0,East,5.8,-,N/A,,Overcast,100,2013-12-06 16:35:00
10:55 AM,7.9,-4.9,56,30.38,10.0,SE,5.8,-,N/A,,Overcast,130,2013-12-06 16:55:00
11:15 AM,8.4,-4.9,55,30.38,10.0,SSE,3.5,-,N/A,,Overcast,160,2013-12-06 17:15:00
11:35 AM,9.5,-4.9,52,30.38,10.0,Calm,Calm,-,N/A,,Overcast,0,2013-12-06 17:35:00
11:55 AM,10.0,-4.9,51,30.36,10.0,SE,3.5,-,N/A,,Overcast,130,2013-12-06 17:55:00
12:15 PM,11.3,-4.9,48,30.35,10.0,SSE,4.6,-,N/A,,Overcast,150,2013-12-06 18:15:00
12:35 PM,11.7,-4.7,48,30.34,10.0,SE,3.5,-,N/A,,Scattered Clouds,140,2013-12-06 18:35:00
12:55 PM,12.9,-4.0,47,30.33,10.0,SE,3.5,-,N/A,,Scattered Clouds,130,2013-12-06 18:55:00
1:15 PM,13.8,-4.4,44,30.32,10.0,ESE,5.8,-,N/A,,Clear,110,2013-12-06 19:15:00
1:35 PM,12.6,-4.7,46,30.32,10.0,South,5.8,-,N/A,,Clear,190,2013-12-06 19:35:00
1:55 PM,14.5,-4.4,43,30.31,10.0,East,4.6,-,N/A,,Clear,100,2013-12-06 19:55:00
2:15 PM,14.0,-4.4,44,30.31,10.0,ESE,6.9,-,N/A,,Clear,120,2013-12-06 20:15:00
2:35 PM,14.7,-4.0,43,30.31,10.0,Calm,Calm,-,N/A,,Clear,0,2013-12-06 20:35:00
2:55 PM,13.5,-3.8,46,30.31,10.0,ESE,3.5,-,N/A,,Mostly Cloudy,110,2013-12-06 20:55:00
3:15 PM,13.8,-4.0,45,30.31,10.0,East,6.9,-,N/A,,Overcast,90,2013-12-06 21:15:00
3:35 PM,13.5,-3.5,47,30.31,10.0,ESE,6.9,-,N/A,,Overcast,110,2013-12-06 21:35:00
3:55 PM,13.1,-3.3,48,30.32,10.0,ESE,5.8,-,N/A,,Mostly Cloudy,110,2013-12-06 21:55:00
4:15 PM,12.7,-3.6,48,30.33,10.0,East,8.1,-,N/A,,Overcast,100,2013-12-06 22:15:00
4:35 PM,12.0,-4.0,49,30.34,10.0,ESE,6.9,-,N/A,,Scattered Clouds,110,2013-12-06 22:35:00
5:55 PM,5.0,-5.6,62,30.36,10.0,ESE,6.9,-,N/A,,Clear,120,2013-12-06 23:55:00
6:15 PM,3.2,-6.0,66,30.37,10.0,SE,8.1,-,N/A,,Clear,130,2013-12-07 00:15:00
6:35 PM,1.9,-6.3,68,30.37,10.0,SE,6.9,-,N/A,,Clear,130,2013-12-07 00:35:00
6:55 PM,1.4,-6.3,70,30.38,10.0,ESE,6.9,-,N/A,,Clear,120,2013-12-07 00:55:00
7:15 PM,0.7,-6.7,71,30.38,10.0,SE,6.9,-,N/A,,Clear,130,2013-12-07 01:15:00
7:35 PM,-0.0,-6.7,73,30.38,10.0,SE,8.1,-,N/A,,Clear,140,2013-12-07 01:35:00
7:55 PM,1.0,-6.2,72,30.38,10.0,SE,9.2,-,N/A,,Clear,140,2013-12-07 01:55:00
8:15 PM,0.7,-6.7,71,30.39,10.0,SE,8.1,-,N/A,,Clear,130,2013-12-07 02:15:00
8:35 PM,1.0,-6.7,70,30.39,10.0,SE,9.2,-,N/A,,Clear,140,2013-12-07 02:35:00
8:55 PM,1.0,-6.7,70,30.39,10.0,SE,9.2,-,N/A,,Clear,140,2013-12-07 02:55:00
9:15 PM,0.5,-6.9,71,30.39,10.0,SE,9.2,-,N/A,,Clear,140,2013-12-07 03:15:00
9:35 PM,0.5,-6.9,71,30.40,10.0,SE,9.2,-,N/A,,Clear,140,2013-12-07 03:35:00
9:55 PM,0.7,-6.7,71,30.41,10.0,SE,11.5,-,N/A,,Clear,140,2013-12-07 03:55:00
10:15 PM,0.1,-6.9,72,30.41,10.0,SE,9.2,-,N/A,,Clear,140,2013-12-07 04:15:00
10:35 PM,-0.6,-7.4,73,30.42,10.0,SE,10.4,-,N/A,,Clear,140,2013-12-07 04:35:00
10:55 PM,-0.4,-7.1,73,30.42,10.0,SE,10.4,-,N/A,,Clear,140,2013-12-07 04:55:00
11:15 PM,-0.4,-7.4,72,30.42,10.0,SE,10.4,-,N/A,,Clear,140,2013-12-07 05:15:00
11:35 PM,-0.4,-7.6,72,30.42,10.0,SE,10.4,-,N/A,,Clear,140,2013-12-07 05:35:00
11:55 PM,-0.4,-7.6,72,30.42,10.0,SSE,10.4,-,N/A,,Clear,150,2013-12-07 05:55:00